Regional Weather Roundup
Issued by NWS Little Rock, AR

Home | Current Version | Previous Version | Graphics & Text | Print | Product List | Glossary On
Versions: 1 2 3 4 5 6 7 8 9 10 11 12 13 14 15 16 17 18 19 20 21 22 23 24 25 26 27 28 29 30 31 32 33 34 35 36 37 38 39 40 41 42 43 44 45 46 47 48 49 50
000
ASUS44 KLZK 010505
RWRLZK

WEATHER ROUNDUP FOR ARKANSAS
NATIONAL WEATHER SERVICE LITTLE ROCK AR
1200 AM CDT WED APR 01 2015

NOTE: "FAIR" INDICATES FEW OR NO CLOUDS BELOW 12,000 FEET WITH NO
SIGNIFICANT WEATHER AND/OR OBSTRUCTIONS TO VISIBILITY.

ARZ001-003-010-029-010600-
NORTHWEST ARKANSAS

CITY           SKY/WX    TMP DP  RH WIND       PRES   REMARKS
FAYETTEVILLE   CLEAR     50  50 100 S8        29.94F
FORT SMITH     CLOUDY    69  59  70 CALM      29.91R
HARRISON       CLEAR     63  56  78 SW3       29.94F
BENTONVILLE    CLEAR     63  52  67 E3        29.94S
ROGERS         CLEAR     62  54  74 SE6       29.94F
SILOAM SPGS    CLEAR     63  48  59 E5        29.94S
HIGHFILL       CLEAR     61  51  70 NE3       29.93S
$$

ARZ004-005-016-010600-
NORTH CENTRAL ARKANSAS

CITY           SKY/WX    TMP DP  RH WIND       PRES   REMARKS
BATESVILLE     MOCLDY    64  57  77 E10       29.94R
FLIPPIN        CLEAR     63  52  67 CALM      29.91F
MTN HOME       CLEAR     66  53  63 E3        29.91F
$$

ARZ040-041-010600-
WEST CENTRAL ARKANSAS

CITY           SKY/WX    TMP DP  RH WIND       PRES   REMARKS
MENA           CLOUDY    68  64  88 CALM      29.98S
MOUNT IDA      CLOUDY    66  62  87 CALM      29.94R
$$

ARZ009-017-025-026-028-010600-
NORTHEAST ARKANSAS

CITY           SKY/WX    TMP DP  RH WIND       PRES   REMARKS
CORNING          N/A     57  57 100 NE7       29.96R
JONESBORO      MOCLDY    62  55  77 SE8       29.95S
NEWPORT        MOCLDY    62  59  90 E14       29.96R
BLYTHEVILLE    PTCLDY    60  56  86 S6        29.96R
$$

ARZ022-023-033-042-044-010600-
CENTRAL ARKANSAS

CITY           SKY/WX    TMP DP  RH WIND       PRES   REMARKS
LITTLE ROCK    PTCLDY    67  61  81 SW8       29.92F
N LITTLE ROCK  PTCLDY    66  64  91 SW8       29.92F
JACKSONVILLE   CLEAR     68  62  82 SW7       29.91F
SEARCY         CLEAR     67  62  84 SW5       29.93R
HOT SPRINGS    CLOUDY    61  59  93 CALM      29.96S
RUSSELLVILLE   CLEAR     64  61  90 SE3       29.91F
CLINTON        FOG       55  55 100 CALM      29.94S VSB<1/4
$$

ARZ036-010600-
EAST ARKANSAS

CITY           SKY/WX    TMP DP  RH WIND       PRES   REMARKS
WEST MEMPHIS   CLOUDY    63  62  97 SE7       29.94S
$$

ARZ050-053-066-070-073-010600-
SOUTHWEST ARKANSAS

CITY           SKY/WX    TMP DP  RH WIND       PRES   REMARKS
ARKADELPHIA    FAIR      62  62 100 SW3       29.96F FOG
CAMDEN         PTCLDY    61  57  88 CALM      29.96F FOG
TEXARKANA      PTCLDY    63  62  97 S3        29.96R
EL DORADO      CLEAR     60  58  92 CALM      29.97S
DE QUEEN       CLOUDY    60  60 100 E3        29.94R FOG
$$

ARZ056-057-069-010600-
SOUTHEAST ARKANSAS

CITY           SKY/WX    TMP DP  RH WIND       PRES   REMARKS
PINE BLUFF     CLEAR     65  62  90 SW5       29.93F
STUTTGART      PTCLDY    66  61  82 W14       29.92S
MONTICELLO     CLEAR     66  61  84 W6        29.94F

$$





USA.gov is the U.S. government's official web portal to all federal, state and local government web resources and services.